FW2972 Weather Reports


Display with metric or nautical units.
time (UTC)temp
F
wind
direction
speed
MPH
gust
MPH
rain 1hr
in
rain 24hr
in
rain mn
in
humidity
%
barometer
mb
20260510211238 86 139 3.0 8.0 0.00 0.00 0.00 79 1017.9
20260510210734 86 139 4.0 8.0 0.00 0.00 0.00 80 1017.8
20260510210229 87 188 3.0 9.0 0.00 0.00 0.00 79 1017.9
20260510205729 87 172 5.0 10.0 0.00 0.00 0.00 78 1017.8
20260510205224 88 160 2.0 6.0 0.00 0.00 0.00 77 1017.8
20260510204721 88 168 5.0 9.0 0.00 0.00 0.00 74 1017.4
20260510204217 89 141 4.0 9.0 0.00 0.00 0.00 74 1017.6
20260510203714 88 216 2.0 7.0 0.00 0.00 0.00 74 1017.6
20260510203212 87 151 2.0 12.0 0.00 0.00 0.00 75 1017.6
20260510202712 88 150 4.0 8.0 0.00 0.00 0.00 74 1017.5
20260510202207 88 231 3.0 11.0 0.00 0.00 0.00 74 1017.4
20260510201705 87 103 3.0 14.0 0.00 0.00 0.00 74 1017.5
20260510201201 89 125 6.0 11.0 0.00 0.00 0.00 72 1017.4
20260510200657 87 186 4.0 10.0 0.00 0.00 0.00 77 1017.4
20260510200155 89 165 2.0 10.0 0.00 0.00 0.00 72 1017.4
20260510195652 88 140 1.0 14.0 0.00 0.00 0.00 72 1017.3
20260510195149 88 178 2.0 12.0 0.00 0.00 0.00 72 1017.3
20260510194648 88 159 5.0 9.0 0.00 0.00 0.00 72 1017.4
20260510194145 88 231 0.0 10.0 0.00 0.00 0.00 74 1017.5
20260510193640 88 151 2.0 9.0 0.00 0.00 0.00 74 1017.3
20260510193135 89 167 4.0 10.0 0.00 0.00 0.00 73 1017.4
20260510192631 88 136 4.0 13.0 0.00 0.00 0.00 76 1017.4
20260510192127 87 121 4.0 11.0 0.00 0.00 0.00 76 1017.4
20260510191624 87 181 5.0 9.0 0.00 0.00 0.00 77 1017.3
20260510191120 87 113 1.0 11.0 0.00 0.00 0.00 75 1017.4
20260510190617 87 143 6.0 11.0 0.00 0.00 0.00 74 1017.3
20260510190115 88 195 5.0 9.0 0.00 0.00 0.00 72 1017.6
20260510185611 88 169 4.0 8.0 0.00 0.00 0.00 71 1017.6
20260510185109 87 162 3.0 6.0 0.00 0.00 0.00 73 1017.7
20260510184606 88 179 3.0 6.0 0.00 0.00 0.00 75 1017.6
20260510184101 87 189 3.0 6.0 0.00 0.00 0.00 76 1018.1
20260510183556 86 108 4.0 13.0 0.00 0.00 0.00 76 1018.1
20260510183052 87 146 0.0 12.0 0.00 0.00 0.00 76 1018.0
20260510182549 86 196 3.0 9.0 0.00 0.00 0.00 77 1018.1
20260510182044 87 194 2.0 9.0 0.00 0.00 0.00 75 1018.0
20260510181543 87 204 3.0 8.0 0.00 0.00 0.00 74 1018.4
20260510181038 87 167 8.0 12.0 0.00 0.00 0.00 74 1018.2
20260510180535 88 139 3.0 6.0 0.00 0.00 0.00 73 1018.4
20260510180033 88 143 5.0 9.0 0.00 0.00 0.00 75 1018.2
20260510175527 86 180 2.0 14.0 0.00 0.00 0.00 78 1018.4
20260510175024 87 210 3.0 6.0 0.00 0.00 0.00 76 1018.4
20260510174522 87 120 0.0 6.0 0.00 0.00 0.00 77 1018.3
20260510174019 86 182 2.0 9.0 0.00 0.00 0.00 78 1018.5
20260510173514 87 135 3.0 5.0 0.00 0.00 0.00 77 1018.5
20260510173011 87 156 3.0 13.0 0.00 0.00 0.00 77 1018.4
20260510172507 86 6 0.0 7.0 0.00 0.00 0.00 77 1018.4
20260510172004 86 114 2.0 7.0 0.00 0.00 0.00 78 1018.6
20260510171500 86 273 0.0 8.0 0.00 0.00 0.00 80 1018.6
20260510170957 86 132 4.0 7.0 0.00 0.00 0.00 79 1018.7
20260510170454 86 233 2.0 7.0 0.00 0.00 0.00 80 1018.6
20260510165949 86 160 4.0 10.0 0.00 0.00 0.00 80 1018.7
20260510165440 86 173 3.0 6.0 0.00 0.00 0.00 79 1018.7
20260510164937 86 237 3.0 11.0 0.00 0.00 0.00 79 1018.8
20260510164434 86 120 5.0 9.0 0.00 0.00 0.00 78 1018.7
20260510163934 86 144 4.0 12.0 0.00 0.00 0.00 80 1018.7
20260510163431 85 243 0.0 5.0 0.00 0.00 0.00 81 1018.8
20260510162925 85 163 2.0 4.0 0.00 0.00 0.00 80 1018.9
20260510162423 85 238 1.0 9.0 0.00 0.00 0.00 82 1018.8
20260510161919 85 153 4.0 5.0 0.00 0.00 0.00 81 1018.8
20260510161415 86 180 2.0 5.0 0.00 0.00 0.00 81 1018.7
20260510160912 86 159 5.0 7.0 0.00 0.00 0.00 80 1019.0
20260510160409 84 213 1.0 7.0 0.00 0.00 0.00 84 1018.9
20260510155908 84 207 2.0 4.0 0.00 0.00 0.00 85 1019.0
20260510155405 84 107 2.0 9.0 0.00 0.00 0.00 85 1019.0
20260510154901 83 110 5.0 9.0 0.00 0.00 0.00 86 1019.2
20260510154357 82 209 2.0 5.0 0.00 0.00 0.00 87 1019.3
20260510153851 82 199 3.0 7.0 0.00 0.00 0.00 87 1019.2
20260510153347 82 187 3.0 6.0 0.00 0.00 0.00 88 1019.2
20260510152844 82 172 3.0 9.0 0.00 0.00 0.00 88 1019.3
20260510152342 82 162 4.0 4.0 0.00 0.00 0.00 89 1019.1
20260510151837 82 148 2.0 7.0 0.00 0.00 0.00 88 1019.2
20260510151336 82 126 2.0 9.0 0.00 0.00 0.00 87 1019.1
20260510150831 83 175 3.0 4.0 0.00 0.00 0.00 87 1019.1
20260510150327 84 155 4.0 7.0 0.00 0.00 0.00 86 1019.0
20260510145824 83 183 2.0 6.0 0.00 0.00 0.00 87 1019.1
20260510145320 83 170 2.0 8.0 0.00 0.00 0.00 85 1019.1
20260510144817 84 200 1.0 2.0 0.00 0.00 0.00 85 1018.9
20260510144314 82 182 2.0 3.0 0.00 0.00 0.00 88 1019.0
20260510143813 82 224 0.0 5.0 0.00 0.00 0.00 88 1019.0
20260510143310 82 240 0.0 2.0 0.00 0.00 0.00 91 1019.2
20260510142806 81 157 0.0 6.0 0.00 0.00 0.00 90 1019.2
20260510142306 81 7 0.0 2.0 0.00 0.00 0.00 91 1019.0
20260510141800 82 158 1.0 5.0 0.00 0.00 0.00 89 1019.0
20260510141258 84 187 1.0 2.0 0.00 0.00 0.00 88 1019.0
20260510140755 82 76 0.0 2.0 0.00 0.00 0.00 91 1018.8
20260510140250 81 140 0.0 4.0 0.00 0.00 0.00 92 1018.9
20260510135744 79 142 0.0 3.0 0.00 0.00 0.00 95 1018.8
20260510135239 78 168 1.0 4.0 0.00 0.00 0.00 95 1018.8
20260510134738 78 120 1.0 3.0 0.00 0.00 0.00 94 1018.7
20260510134235 79 130 2.0 3.0 0.00 0.00 0.00 94 1018.5
20260510133730 79 152 0.0 2.0 0.00 0.00 0.00 94 1018.7
20260510133226 79 205 0.0 3.0 0.00 0.00 0.00 94 1018.8
20260510132722 79 145 0.0 3.0 0.00 0.00 0.00 96 1018.5
20260510132220 79 219 2.0 3.0 0.00 0.00 0.00 96 1018.3
20260510131717 78 217 0.0 1.0 0.00 0.00 0.00 97 1018.2
20260510131215 78 81 0.0 2.0 0.00 0.00 0.00 97 1018.2
20260510130711 78 14 0.0 0.0 0.00 0.00 0.00 97 1018.1
20260510130208 77 205 0.0 1.0 0.00 0.00 0.00 98 1017.8
20260510125704 77 230 0.0 1.0 0.00 0.00 0.00 98 1017.7
20260510125201 77 142 0.0 1.0 0.00 0.00 0.00 98 1017.9
20260510124658 77 129 0.0 2.0 0.00 0.00 0.00 98 1017.6
20260510124155 77 180 0.0 2.0 0.00 0.00 0.00 98 1017.3
20260510123650 77 117 0.0 1.0 0.00 0.00 0.00 99 1017.2
20260510123146 77 135 0.0 1.0 0.00 0.00 0.00 98 1017.5
20260510122643 76 142 0.0 1.0 0.00 0.00 0.00 98 1017.4
20260510122139 76 150 0.0 2.0 0.00 0.00 0.00 98 1017.2
20260510121635 76 124 1.0 2.0 0.00 0.00 0.00 98 1017.0
20260510121133 76 210 0.0 2.0 0.00 0.00 0.00 99 1016.8
20260510120630 76 134 2.0 4.0 0.00 0.00 0.00 99 1017.0
20260510120126 76 144 2.0 3.0 0.00 0.00 0.00 98 1016.9
20260510115622 76 146 0.0 3.0 0.00 0.00 0.00 99 1016.7
20260510115121 76 162 0.0 2.0 0.00 0.00 0.00 99 1016.5
20260510114615 76 213 0.0 5.0 0.00 0.00 0.00 98 1016.5
20260510114112 76 169 2.0 3.0 0.00 0.00 0.00 99 1016.4
20260510113608 76 139 3.0 6.0 0.00 0.00 0.00 99 1016.2
20260510113105 76 191 2.0 6.0 0.00 0.00 0.00 99 1016.1
20260510112601 76 142 0.0 2.0 0.00 0.00 0.00 99 1016.2
20260510112058 76 151 0.0 5.0 0.00 0.00 0.00 99 1016.2
20260510111554 76 148 1.0 3.0 0.00 0.00 0.00 99 1016.1
20260510111050 76 166 0.0 2.0 0.00 0.00 0.00 99 1016.0
20260510110547 76 140 0.0 4.0 0.00 0.00 0.00 99 1016.0
20260510110043 76 195 0.0 2.0 0.00 0.00 0.00 99 1015.8
20260510105539 76 134 3.0 5.0 0.00 0.00 0.00 99 1015.9
20260510105033 76 176 1.0 2.0 0.00 0.00 0.00 99 1015.8
20260510104530 76 147 0.0 3.0 0.00 0.00 0.00 99 1015.7
20260510104026 76 233 2.0 7.0 0.00 0.00 0.00 99 1015.4
20260510103524 76 145 2.0 5.0 0.00 0.00 0.00 99 1015.5
20260510103020 76 205 0.0 6.0 0.00 0.00 0.00 99 1015.5
20260510102516 76 108 0.0 10.0 0.00 0.00 0.00 99 1015.6
20260510102013 75 182 1.0 9.0 0.00 0.00 0.00 99 1015.6
20260510101510 75 87 1.0 4.0 0.00 0.00 0.00 99 1015.4
20260510101009 75 157 4.0 7.0 0.00 0.00 0.00 99 1015.4
20260510100504 75 106 2.0 5.0 0.00 0.00 0.00 99 1015.5
20260510100002 75 235 0.0 10.0 0.00 0.00 0.00 99 1015.5
20260510095456 75 214 0.0 4.0 0.00 0.00 0.00 99 1015.6
20260510094956 75 255 0.0 5.0 0.00 0.00 0.00 99 1015.3
20260510094451 75 189 1.0 3.0 0.00 0.00 0.00 99 1015.5
20260510093947 75 204 1.0 4.0 0.00 0.00 0.00 99 1015.5
20260510093443 75 180 0.0 6.0 0.00 0.00 0.00 99 1015.3
20260510092939 75 229 2.0 7.0 0.00 0.00 0.00 99 1015.6
20260510092437 75 170 2.0 4.0 0.00 0.00 0.00 99 1015.3
20260510091936 75 222 1.0 3.0 0.00 0.00 0.00 99 1015.5
20260510091434 75 262 2.0 4.0 0.00 0.00 0.00 99 1015.5
20260510090930 75 215 0.0 4.0 0.00 0.00 0.00 99 1015.6
20260510090427 75 230 0.0 4.0 0.00 0.00 0.00 99 1015.6
20260510085922 74 147 0.0 2.0 0.00 0.00 0.00 99 1015.3
20260510085418 74 173 0.0 3.0 0.00 0.00 0.00 99 1015.4
20260510084913 74 106 0.0 2.0 0.00 0.00 0.00 99 1015.4
20260510084411 75 218 1.0 3.0 0.00 0.00 0.00 99 1015.2
20260510083907 75 228 0.0 2.0 0.00 0.00 0.00 99 1015.4
20260510083404 74 145 2.0 3.0 0.00 0.00 0.00 99 1015.3
20260510082859 74 195 0.0 5.0 0.00 0.00 0.00 99 1015.4
20260510082357 74 104 0.0 4.0 0.00 0.00 0.00 99 1015.4
20260510081855 74 219 1.0 3.0 0.00 0.00 0.00 99 1015.3
20260510081352 74 186 1.0 3.0 0.00 0.00 0.00 99 1015.4
20260510080849 74 113 0.0 2.0 0.00 0.00 0.00 99 1015.5
20260510080342 74 209 0.0 4.0 0.00 0.00 0.00 99 1015.4
20260510075840 74 171 2.0 2.0 0.00 0.00 0.00 99 1015.2
20260510075338 74 153 2.0 4.0 0.00 0.00 0.00 99 1015.2
20260510074834 74 142 0.0 0.0 0.00 0.00 0.00 99 1015.3
20260510074331 75 247 2.0 3.0 0.00 0.00 0.00 99 1015.3
20260510073828 74 92 1.0 2.0 0.00 0.00 0.00 99 1015.2
20260510073323 75 128 2.0 7.0 0.00 0.00 0.00 99 1015.2
20260510072819 75 97 8.0 8.0 0.00 0.00 0.00 99 1015.3
20260510072317 75 174 1.0 4.0 0.00 0.00 0.00 99 1015.2
20260510071813 75 158 0.0 6.0 0.00 0.00 0.00 99 1015.2
20260510071309 74 242 0.0 2.0 0.00 0.00 0.00 99 1015.2
20260510070808 75 210 1.0 5.0 0.00 0.00 0.00 99 1015.2
20260510070305 74 191 1.0 5.0 0.00 0.00 0.00 99 1015.3
20260510065804 74 123 3.0 3.0 0.00 0.00 0.00 99 1015.3
20260510065305 74 128 0.0 2.0 0.00 0.00 0.00 98 1015.5
20260510064758 75 247 3.0 5.0 0.00 0.00 0.00 98 1015.2
20260510064256 75 250 0.0 3.0 0.00 0.00 0.00 98 1015.3
20260510063751 75 210 2.0 8.0 0.00 0.00 0.00 97 1015.2
20260510063248 75 257 2.0 6.0 0.00 0.00 0.00 97 1015.2
20260510062745 75 148 3.0 8.0 0.00 0.00 0.00 97 1015.4
20260510062241 75 209 2.0 6.0 0.00 0.00 0.00 98 1015.4
20260510061736 75 176 1.0 4.0 0.00 0.00 0.00 99 1015.4
20260510061234 75 152 3.0 5.0 0.00 0.00 0.00 99 1015.6
20260510060729 75 168 2.0 4.0 0.00 0.00 0.00 99 1015.6
20260510060227 75 158 2.0 4.0 0.00 0.00 0.00 99 1015.7
20260510055723 75 162 1.0 6.0 0.00 0.00 0.00 99 1015.6
20260510055221 75 157 0.0 5.0 0.00 0.00 0.00 99 1015.8
20260510054716 75 142 3.0 7.0 0.00 0.00 0.00 99 1015.6
20260510054212 75 163 3.0 5.0 0.00 0.00 0.00 99 1015.7
20260510053712 75 196 2.0 5.0 0.00 0.00 0.00 99 1015.3
20260510053208 76 146 2.0 6.0 0.00 0.00 0.00 98 1015.8
20260510052704 76 187 2.0 7.0 0.00 0.00 0.00 98 1015.6
20260510052200 76 183 1.0 11.0 0.00 0.00 0.00 98 1015.7
20260510051656 76 182 3.0 11.0 0.00 0.00 0.00 98 1015.8
20260510051153 76 138 7.0 11.0 0.00 0.00 0.00 98 1015.8
20260510050650 76 134 2.0 11.0 0.00 0.00 0.00 99 1015.8
20260510050147 76 195 3.0 10.0 0.00 0.00 0.00 99 1016.1
20260510045644 76 183 2.0 7.0 0.00 0.02 0.02 99 1016.2
20260510045141 76 165 3.0 6.0 0.00 0.02 0.02 99 1016.0
20260510044636 76 155 2.0 7.0 0.00 0.02 0.02 99 1016.1
20260510044134 76 153 1.0 11.0 0.00 0.02 0.02 99 1016.2
20260510043630 76 166 2.0 9.0 0.00 0.02 0.02 99 1016.3
20260510043126 76 126 2.0 6.0 0.00 0.02 0.02 99 1016.4
20260510042624 76 200 3.0 11.0 0.00 0.02 0.02 99 1016.5
20260510042120 76 85 5.0 10.0 0.00 0.02 0.02 99 1016.5
20260510041617 76 132 5.0 10.0 0.00 0.02 0.02 99 1016.5
20260510041114 76 144 2.0 6.0 0.02 0.02 0.02 99 1016.7
20260510040612 76 125 1.0 12.0 0.02 0.02 0.02 99 1016.7
20260510040108 76 141 1.0 7.0 0.00 0.01 0.01 99 1016.6
20260510035604 76 134 4.0 7.0 0.00 0.01 0.01 99 1016.5
20260510035058 76 152 3.0 5.0 0.00 0.01 0.01 99 1016.7
20260510034556 76 124 2.0 9.0 0.02 0.01 0.01 99 1016.4
20260510034053 76 109 2.0 3.0 0.05 0.01 0.01 99 1016.1
20260510033549 77 80 0.0 5.0 0.05 0.01 0.01 99 1016.0
20260510033047 77 162 3.0 9.0 0.02 0.00 0.00 99 1016.0
20260510032543 77 119 5.0 11.0 0.00 0.00 0.00 98 1015.8
20260510032038 77 165 2.0 7.0 0.00 0.00 0.00 98 1016.2
20260510031533 77 200 0.0 5.0 0.00 0.00 0.00 97 1016.4
20260510031030 78 132 4.0 6.0 0.00 0.00 0.00 97 1016.6
20260510030526 78 146 2.0 8.0 0.00 0.00 0.00 97 1016.4
20260510030023 78 57 1.0 8.0 0.00 0.00 0.00 97 1016.4
20260510025520 78 226 3.0 11.0 0.00 0.00 0.00 96 1016.4
20260510025018 78 105 3.0 7.0 0.00 0.00 0.00 97 1016.1
20260510024514 78 172 2.0 13.0 0.00 0.00 0.00 97 1016.0
20260510024010 78 184 3.0 13.0 0.00 0.00 0.00 96 1015.8
20260510023506 78 129 3.0 11.0 0.00 0.00 0.00 96 1015.7
20260510023004 78 155 7.0 10.0 0.00 0.00 0.00 96 1015.6
20260510022503 78 156 3.0 10.0 0.00 0.00 0.00 96 1015.5
20260510022003 78 103 6.0 7.0 0.00 0.00 0.00 95 1015.6
20260510021459 78 167 2.0 7.0 0.00 0.00 0.00 95 1015.5
20260510020956 78 157 2.0 9.0 0.00 0.00 0.00 94 1015.4
20260510020451 79 137 4.0 8.0 0.00 0.00 0.00 94 1015.3
20260510015946 79 101 5.0 10.0 0.00 0.00 0.00 93 1015.1
20260510015443 79 201 3.0 5.0 0.00 0.00 0.00 90 1014.5
20260510014938 80 166 3.0 7.0 0.00 0.00 0.00 87 1014.4
20260510014436 80 137 3.0 8.0 0.00 0.00 0.00 83 1014.3
20260510013932 80 138 2.0 7.0 0.00 0.00 0.00 82 1014.2
20260510013427 80 149 3.0 6.0 0.00 0.00 0.00 82 1014.1
20260510012923 81 131 3.0 5.0 0.00 0.00 0.00 82 1014.3
20260510012418 81 204 0.0 8.0 0.00 0.00 0.00 81 1014.0
20260510011913 81 165 3.0 5.0 0.00 0.00 0.00 78 1013.9
20260510011408 81 149 0.0 8.0 0.00 0.00 0.00 77 1013.4
20260510010904 82 266 3.0 6.0 0.00 0.00 0.00 77 1013.3
20260510010402 82 190 0.0 5.0 0.00 0.00 0.00 76 1013.4
20260510005858 82 142 7.0 8.0 0.00 0.00 0.00 75 1013.1
20260510005354 83 186 3.0 17.0 0.00 0.00 0.00 73 1013.1
20260510004852 83 180 1.0 10.0 0.00 0.00 0.00 73 1013.1
20260510004349 83 175 2.0 6.0 0.00 0.00 0.00 80 1012.9
20260510003847 83 178 1.0 8.0 0.00 0.00 0.00 78 1012.9
20260510003344 83 185 1.0 4.0 0.00 0.00 0.00 77 1013.0
20260510002842 84 203 2.0 4.0 0.00 0.00 0.00 76 1013.1
20260510002340 84 156 4.0 5.0 0.00 0.00 0.00 75 1012.8
20260510001837 84 220 0.0 7.0 0.00 0.00 0.00 73 1012.9
20260510001335 84 151 4.0 8.0 0.00 0.00 0.00 72 1012.8
20260510000831 84 121 0.0 4.0 0.00 0.00 0.00 72 1013.2
20260510000328 84 133 2.0 6.0 0.00 0.00 0.00 70 1012.8
20260509235825 85 214 1.0 4.0 0.00 0.00 0.00 71 1012.6
20260509235321 85 229 0.0 7.0 0.00 0.00 0.00 72 1012.7
20260509234817 85 180 0.0 3.0 0.00 0.00 0.00 76 1012.6
20260509234314 85 131 0.0 5.0 0.00 0.00 0.00 76 1012.7
20260509233812 85 174 2.0 7.0 0.00 0.00 0.00 77 1012.6
20260509233309 85 198 2.0 5.0 0.00 0.00 0.00 77 1012.5
20260509232805 85 167 2.0 6.0 0.00 0.00 0.00 76 1012.4
20260509232306 86 136 5.0 6.0 0.00 0.00 0.00 76 1012.4
20260509231759 86 211 1.0 5.0 0.00 0.00 0.00 77 1012.7
20260509231256 87 175 2.0 5.0 0.00 0.00 0.00 76 1012.8
20260509230754 87 139 2.0 7.0 0.00 0.00 0.00 76 1012.4
20260509230250 86 135 1.0 5.0 0.00 0.00 0.00 77 1012.6
20260509225745 87 129 1.0 8.0 0.00 0.00 0.00 77 1012.5
20260509225242 88 168 2.0 9.0 0.00 0.00 0.00 75 1012.5
20260509224738 87 181 2.0 5.0 0.00 0.00 0.00 76 1012.6
20260509224235 87 187 4.0 6.0 0.00 0.00 0.00 77 1012.4
20260509223732 87 163 2.0 6.0 0.00 0.00 0.00 77 1012.2
20260509223229 87 166 0.0 7.0 0.00 0.00 0.00 76 1012.5
20260509222726 87 169 2.0 7.0 0.00 0.00 0.00 77 1012.4
20260509222221 88 207 1.0 10.0 0.00 0.00 0.00 74 1012.3
20260509221717 89 190 2.0 5.0 0.00 0.00 0.00 73 1012.2
20260509221213 88 151 3.0 9.0 0.00 0.00 0.00 74 1012.1
20260509220709 87 157 2.0 5.0 0.00 0.00 0.00 76 1012.2
20260509220206 87 193 1.0 6.0 0.00 0.00 0.00 75 1012.4
20260509215701 88 147 3.0 6.0 0.00 0.00 0.00 72 1012.2
20260509215158 88 195 2.0 4.0 0.00 0.00 0.00 70 1012.0
20260509214655 89 148 5.0 7.0 0.00 0.00 0.00 70 1012.1
20260509214152 91 137 3.0 6.0 0.00 0.00 0.00 67 1012.3
20260509213649 93 205 2.0 5.0 0.00 0.00 0.00 66 1012.0
20260509213144 92 234 3.0 4.0 0.00 0.00 0.00 66 1011.9
20260509212643 91 171 3.0 6.0 0.00 0.00 0.00 65 1012.0
20260509212139 91 201 3.0 6.0 0.00 0.00 0.00 67 1012.2
20260509211635 93 155 2.0 4.0 0.00 0.00 0.00 64 1011.9